Weather History for LIVC - February, 2013

Change the Weather History Date:

Saturday, February 23, 2013

  Actual Average Record
Temperature  
Mean Temperature 18 °F -  
Max Temperature 23 °F 30 °F 41 °F (2008)
Min Temperature 14 °F 22 °F 12 °F (1999)
Degree Days  
Heating Degree Days 46    
Moisture  
Dew Point 16 °F    
Average Humidity 87    
Maximum Humidity 100    
Minimum Humidity 53    
Precipitation  
Precipitation 0.04 in 0.07 in - ()
Sea Level Pressure  
Sea Level Pressure 29.28 in    
Wind  
Wind Speed 16 mph ()    
Max Wind Speed 46 mph    
Max Gust Speed -    
Visibility 3.0 miles    
Events Fog , Snow    
Averages and records for this station are not official NWS values.
T = Trace of Precipitation, MM = Missing Value Source: Averaged Metar Reports

Daily Weather History Graph

Daily Weather History Graph

Search for Another Location

Airport or City:

Trip Planner

Search our weather history database for the weather conditions in past years. The results will help you decide how hot, cold, wet, or windy it might be!

Date:

Astronomy

Feb. 23, 2013 Rise Set
Actual Time 7:04 AM CET 5:57 PM CET
Civil Twilight 6:34 AM CET 6:26 PM CET
Nautical Twilight 6:01 AM CET 7:00 PM CET
Astronomical Twilight 5:27 AM CET 7:33 PM CET
Moon 3:48 PM CET (2/23) 5:20 AM CET (2/23)
Length of Visible Light 11h 51m
Length of Day
10h 53m
Waxing Gibbous, 94% of the Moon is Illuminated
Feb 23
Waxing Gibbous
Feb 25
Full
Mar 4
Last Quarter
Mar 11
New
Mar 19
First Quarter

Hourly Weather History & Observations

Time (CET) Temp. Windchill Dew Point Humidity Pressure Visibility Wind Dir Wind Speed Gust Speed Precip Events Conditions
12:55 AM 21.2 °F 9.5 °F 12.2 °F 68% 29.33 in - West 11.5 mph - N/A   Clear
1:00 AM 22 °F - 12 °F 53%  in 12 mi West 11.5 mph - -   Partly Cloudy
1:55 AM 21.2 °F 12.6 °F 12.2 °F 68% 29.33 in - West 6.9 mph - N/A   Clear
2:55 AM 21.2 °F 10.9 °F 14.0 °F 74% 29.33 in - West 9.2 mph - N/A   Clear
4:55 AM 21.2 °F 9.5 °F 15.8 °F 80% 29.30 in - West 11.5 mph - N/A   Clear
5:55 AM 19.4 °F 7.9 °F 14.0 °F 80% 29.30 in 0.0 mi West 10.4 mph - N/A Fog Light Freezing Fog
6:55 AM 21.2 °F 11.7 °F 15.8 °F 80% 29.30 in - West 8.1 mph - N/A   Clear
7:00 AM 20 °F - 16 °F 76%  in 12 mi West 8.1 mph - -   Clear
7:55 AM 21.2 °F 10.9 °F 15.8 °F 80% 29.33 in 6.2 mi West 9.2 mph - N/A   Mostly Cloudy
8:55 AM 21.2 °F 9.5 °F 17.6 °F 86% 29.36 in 6.2 mi West 11.5 mph - N/A   Mostly Cloudy
9:55 AM 23.0 °F 10.6 °F 19.4 °F 86% 29.36 in 6.2 mi West 13.8 mph - N/A   Scattered Clouds
10:55 AM 21.2 °F 5.2 °F 15.8 °F 80% 29.36 in 1.9 mi West 21.9 mph - N/A   Mist
11:55 AM 19.4 °F 3.2 °F 17.6 °F 93% 29.33 in 0.0 mi West 20.7 mph - N/A Fog Light Freezing Fog
12:55 PM 17.6 °F 0.5 °F 17.6 °F 100% 29.30 in 0.0 mi West 21.9 mph - N/A Fog Light Freezing Fog
1:00 PM 18 °F - 18 °F 98%  in 0 mi West 21.9 mph - - Fog Heavy Fog
1:55 PM 15.8 °F -2.3 °F 14.0 °F 93% 29.24 in 0.0 mi West 23.0 mph - N/A Fog Light Freezing Fog
3:55 PM 14.0 °F -8.0 °F 14.0 °F 100% 29.18 in - WNW 34.5 mph - N/A Fog Light Freezing Fog
4:55 PM 14.0 °F -10.0 °F 14.0 °F 100% 29.18 in - NW 43.7 mph - N/A Fog Light Freezing Fog
5:55 PM 14.0 °F -10.5 °F 14.0 °F 100% 29.21 in - NW 46.0 mph - N/A Fog Light Freezing Fog
6:55 PM 14.0 °F -9.8 °F 14.0 °F 100% 29.18 in - North 42.6 mph - N/A Fog Light Freezing Fog
7:00 PM 15 °F - 14 °F 94%  in 0 mi North 42.6 mph - - Snow Light Snow
7:55 PM 15.8 °F -6.8 °F 14.0 °F 93% 29.18 in - North 40.3 mph - N/A Fog Light Freezing Fog
9:55 PM 15.8 °F 1.4 °F 15.8 °F 100% 29.21 in 0.0 mi NW 13.8 mph - N/A Fog Light Freezing Fog
10:55 PM 19.4 °F 0.8 °F 19.4 °F 100% 29.24 in 0.0 mi NW 28.8 mph - N/A Fog Light Freezing Fog
11:55 PM 21.2 °F 1.9 °F 21.2 °F 100% 29.24 in 0.0 mi NW 34.5 mph - N/A Fog Light Freezing Fog